TimeEDT,TemperatureF,Dew PointF,Humidity,Sea Level PressureIn,VisibilityMPH,Wind Direction,Wind SpeedMPH,Gust SpeedMPH,PrecipitationIn,Events,Conditions,WindDirDegrees,DateUTC
12:53 AM,33.1,17.1,52,29.94,10.0,North,6.9,-,N/A,,Clear,360,2013-03-24 04:53:00
1:53 AM,30.9,17.1,57,29.94,10.0,Calm,Calm,-,N/A,,Clear,0,2013-03-24 05:53:00
2:53 AM,28.9,17.1,61,29.91,10.0,North,3.5,-,N/A,,Clear,350,2013-03-24 06:53:00
3:53 AM,30.9,16.0,54,29.91,10.0,Calm,Calm,-,N/A,,Clear,0,2013-03-24 07:53:00
4:53 AM,28.0,16.0,61,29.91,10.0,Calm,Calm,-,N/A,,Clear,0,2013-03-24 08:53:00
5:53 AM,30.9,17.1,57,29.92,10.0,WNW,3.5,-,N/A,,Clear,290,2013-03-24 09:53:00
6:53 AM,28.9,17.1,61,29.93,10.0,Calm,Calm,-,N/A,,Clear,0,2013-03-24 10:53:00
7:53 AM,30.9,19.0,61,29.94,10.0,West,3.5,-,N/A,,Clear,260,2013-03-24 11:53:00
8:53 AM,34.0,19.0,54,29.94,10.0,Variable,4.6,-,0.00,,Clear,0,2013-03-24 12:53:00
9:53 AM,37.0,19.9,50,29.93,10.0,Variable,6.9,-,0.00,,Scattered Clouds,0,2013-03-24 13:53:00
10:53 AM,39.0,19.0,45,29.91,10.0,Variable,4.6,-,0.00,,Clear,0,2013-03-24 14:53:00
11:53 AM,39.9,19.9,45,29.87,10.0,NNE,10.4,18.4,0.00,,Partly Cloudy,20,2013-03-24 15:53:00
12:53 PM,42.1,21.0,43,29.84,10.0,North,9.2,-,0.00,,Partly Cloudy,350,2013-03-24 16:53:00
1:53 PM,44.1,19.9,38,29.82,10.0,Variable,5.8,-,N/A,,Clear,0,2013-03-24 17:53:00
2:53 PM,44.1,19.9,38,29.76,10.0,NE,4.6,-,N/A,,Clear,50,2013-03-24 18:53:00
3:53 PM,45.0,19.0,36,29.73,10.0,Variable,3.5,-,N/A,,Clear,0,2013-03-24 19:53:00
4:53 PM,45.0,21.0,39,29.73,10.0,Variable,3.5,-,N/A,,Clear,0,2013-03-24 20:53:00
5:53 PM,44.1,21.9,42,29.72,10.0,NE,8.1,-,N/A,,Clear,50,2013-03-24 21:53:00
6:53 PM,42.1,21.0,43,29.72,10.0,NE,5.8,-,N/A,,Clear,40,2013-03-24 22:53:00
7:53 PM,39.9,21.9,49,29.75,10.0,ENE,5.8,-,N/A,,Clear,60,2013-03-24 23:53:00
8:53 PM,39.0,21.0,49,29.77,10.0,NE,5.8,-,N/A,,Clear,40,2013-03-25 00:53:00
9:53 PM,37.9,21.9,53,29.76,10.0,NE,4.6,-,N/A,,Clear,40,2013-03-25 01:53:00
10:53 PM,37.0,21.9,54,29.75,10.0,NE,5.8,-,N/A,,Clear,40,2013-03-25 02:53:00
11:53 PM,37.0,21.9,54,29.72,10.0,NE,6.9,-,N/A,,Clear,40,2013-03-25 03:53:00